Regional Weather Roundup
Issued by NWS San Diego, CA

Home | Current Version | Previous Version | Text Only | Print | Product List | Glossary On
Versions: 1 2 3 4 5 6 7 8 9 10 11 12 13 14 15 16 17 18 19 20 21 22 23 24 25 26 27 28 29 30 31 32 33 34 35 36 37 38 39 40 41 42 43 44 45 46 47 48 49 50
000
ASUS46 KSGX 242011
RWRSGX

SAN DIEGO HOURLY WEATHER ROUNDUP
NATIONAL WEATHER SERVICE SAN DIEGO CA
100 PM PDT TUE MAY 24 2016

NOTE: "FAIR" INDICATES FEW OR NO CLOUDS BELOW 12,000 FEET WITH NO
SIGNIFICANT WEATHER AND/OR OBSTRUCTIONS TO VISIBILITY.

CAZ042-043-060-061-PZZ750-775-242100-

GREATER SAN DIEGO AREA

CITY           SKY/WX    TMP DP  RH WIND       PRES   REMARKS
LINDBERGH FLD  PTSUNNY   65  53  65 SW12      30.07R
POINT LOMA       N/A     68  66  93 SW9         N/A
NATIONAL CITY    N/A     67  57  69 SW3       30.06S
CHULA VISTA      N/A     68  57  68 W12       29.99R
IMPERIAL BEACH MOSUNNY   69  54  58 W14       30.07R
BROWN FIELD    PTSUNNY   68  51  54 W10       30.05R
MIRAMAR MCAS   CLOUDY    67  51  56 W12       30.04S
MONTGOMERY FLD PTSUNNY   66  52  60 W8        30.05S

$$

NORTH SAN DIEGO COUNTY

CITY           SKY/WX    TMP DP  RH WIND       PRES   REMARKS
CAMP PENDLETON PTSUNNY   68  52  56 SW10G20   30.03S
OCEANSIDE AP   PTSUNNY   67  52  58 SW13      30.04R
OCEANSIDE HBR    N/A     64  57  78 SW13      30.07R
VISTA            N/A     65  54  65 SW7       30.01S
CARLSBAD       CLOUDY    64  53  67 W12G18    30.03S
DEL MAR          N/A     67  56  67 W2        30.08R
LA JOLLA SCRIP   N/A     64  57  77 SW6       30.05S
FALLBROOK        N/A     67  54  63 S2        30.01S
ESCONDIDO        N/A     71  52  51 SW3       30.05R
SAN MARCOS       N/A     64  51  63 W8        30.02S
POWAY            N/A     68  53  59 S8        30.05S

$$

EAST SAN DIEGO COUNTY

CITY           SKY/WX    TMP DP  RH WIND       PRES   REMARKS
RAMONA         PTSUNNY   65  46  50 W12G20    30.03S
SANTEE LAKES     N/A     65  55  69 W9        30.04R
LA MESA          N/A     64  54  69 SW5       29.98S
DESCANSO N       N/A     58  43  59 W12       29.93R
MT. LAGUNA OBS   N/A     43  36  74 W10       29.62R
CAMPO            N/A     64  40  41 W13G28    29.99S

$$

ORANGE COUNTY AND THE LOS ANGELES BASIN

CITY           SKY/WX    TMP DP  RH WIND       PRES   REMARKS
JOHN WAYNE AP  MOSUNNY   69  49  48 S12G17    30.02R
LAKE FOREST FR   N/A     70  48  46 S6        29.90S
HUNTINGTON BCH   N/A     69  57  65 SW6       30.04S
LOS ALAMITOS   MOSUNNY   70  49  47 S9        30.01S
FULLERTON      PTSUNNY   72  48  42 SW9       30.00S
LONG BEACH     SUNNY     68  49  50 S9        30.02S
L.A. AP        MOSUNNY   66  50  56 W13       30.02S
L.A. DOWNTOWN  CLOUDY    68  51  54 VRB3      30.00S

$$

THE INLAND EMPIRE

CITY           SKY/WX    TMP DP  RH WIND       PRES   REMARKS
CORONA         CLOUDY    69  48  47 W9        30.00S
CHINO          PTSUNNY   69  48  47 NW9       30.01S
ONTARIO        PTSUNNY   67  47  48 SW8       30.00S
SAN BERNARDINO CLOUDY    70  45  40 SW7       30.01R
RIVERSIDE AP   CLOUDY    69  44  40 CALM      30.00S
MORENO VALLEY    N/A     68  51  54 CALM      28.12S
MARCH ARB      PTSUNNY   67  44  42 VRB5      30.00S
HORSETHIEF CYN   N/A     67  42  39 NW6       30.02S
PERRIS           N/A     67  47  49 S8        29.98F
HEMET EAST       N/A     66  41  40 S1        29.90S
FRENCH VALLEY  FAIR      66  43  42 S6        30.02S
TEMECULA         N/A     68  51  54 SW6       29.97S

$$

SAN BERNARDINO AND RIVERSIDE COUNTY MOUNTAINS

CITY           SKY/WX    TMP DP  RH WIND       PRES   REMARKS
BIG BEAR AP    SUNNY     50  28  43 W8G16     30.04R
ANGELUS OAKS     N/A     50  37  61 CALM      29.93R
PINE COVE        N/A     48  40  72 NW3       30.01R

$$

SOUTHERN DESERT INCLUDING THE COACHELLA VALLEY

CITY           SKY/WX    TMP DP  RH WIND       PRES   REMARKS
PALM SPRINGS   SUNNY     80  38  22 NW13G23   29.90S
THOUSAND PALMS   N/A     79  41  25 W16       29.88S
PALM DESERT      N/A     82  43  25 NE2         N/A
THERMAL        SUNNY     81  35  19 CALM      29.86F
BLYTHE         SUNNY     83  33  16 SW15G24   29.87S
IMPERIAL AP    SUNNY     82  39  21 W12G17    29.89F
EL CENTRO NAS  MOSUNNY   81  35  19 W12       29.91F
YUMA AZ        SUNNY     81  37  20 NW12      29.91
MEXICALI       SUNNY     81  30  16 NW9       29.90F

$$

UPPER DESERT

CITY           SKY/WX    TMP DP  RH WIND       PRES   REMARKS
VICTORVILLE AP PTSUNNY   64  39  39 S7G22     29.96S
HESPERIA         N/A     63  43  48 SW7       30.06S
PALMDALE       SUNNY     66  41  40 SW24G33   29.96S
LANCASTER      SUNNY     67  42  40 SW26G35   29.96R
EDWARDS AFB    MOSUNNY   69  40  34 SW21G31   29.91S
DAGGETT        MOSUNNY   75  37  25 SW23G31   29.90S
29 PALMS N     MOSUNNY   73  28  18 CALM      29.97S
NEEDLES        SUNNY     84  28  13 SW22G29   29.84S

$$

REGIONAL REPORTS

CITY           SKY/WX    TMP DP  RH WIND       PRES   REMARKS
SANTA BARBARA  MOSUNNY   65  51  60 W13       30.02S
SANDBERG       CLOUDY    54  42  64 S14       30.03S
LAS VEGAS NV   MOSUNNY   77  32  19 SW17G25   29.79S
PHOENIX AZ     SUNNY     84  30  14 VRB6      29.87F
TIJUANA        PTSUNNY   66  46  48 SW9       30.07S
ENSENADA NW      N/A     64  32  30 W7        30.04R

$$

OFFSHORE ISLANDS

CITY           SKY/WX    TMP DP  RH WIND       PRES   REMARKS
CATALINA ARPT  PTSUNNY   58  50  75 W12       30.05R
SAN CLEMENTE I PTSUNNY   65  51  60 NW14      30.06S
SAN NICOLAS IS MOSUNNY   66  47  50 W16G23    30.04R

$$

MARINE AND OFFSHORE BUOY REPORTS

STATION/POSITION SKY/WX   TEMP    WIND        PRES    SWELL
                          AIR SEA DIR/SP/G            HT/PER/DIR
                          (F)     (DEG/KT/KT) (MB)    (FT/S/D)
TANNER BANKS               60 62  290/  6/  8 1018.0R   3/330/ 6
S CLEMENTE BASIN           59 62  260/  8/ 10 1017.8R   3/280/ 5
SAN NICOLAS IS.               60                N/A     2/210/15
SO. S. ROSA ISLA           58 60  300/  6/  8 1017.4R   3/290/ 5
W. S. BARBARA CH           56 56  290/  8/ 10 1016.8R   3/290/ 5
M. S. BARBARA CH           57 59  260/ 10/ 14 1017.4R
S. MONICA BASIN            59 64  310/  6/  8 1017.2S   2/260/ 5
S PEDRO CHANNEL               65                N/A
OCEANSIDE OFFSHR              66                N/A     2/210/14
TORREY PINES OTR              66                N/A     2/220/15
LA JOLLA 1                 62 67  230/  6/  7 1017.5R
SAN DIEGO BAY                 69              1017.9R
POINT LOMA SOUTH              66                N/A     2/190/13

$$




USA.gov is the U.S. government's official web portal to all federal, state and local government web resources and services.